ABS-6

Last updated on Sept. 28, 2020, 5:45 a.m. UTC

1 25924U 99053A   20271.87738750 -.00000142  00000-0  00000-0 0  9993
2 25924   0.0293  71.3717 0000924  98.6269 311.9853  1.00272522 76935
UTC
Height (km)
Latitude
Longitude
Inclination
Orbital Period
UTC large
Height (km)
Speed (km/s)
/
Latitude / Longitude
Inclination (degrees)
Orbital Period (minutes)
Azimuth
Elevation
Range (km)
Doppler Factor
iOS Compass Heading
iOS Angle

Next 30 passes for location: Hong Kong

Rise time Rise Azimuth (degrees) Set time Set Azimuth (degrees) Duration Max altitude (degrees)

No matching passes for this satellites